• En España
  • Lista de países
  • Para 7 días
  • Temperatura del agua
  • Mapa Satelital
  • El tiempo en el mapa
  • Informadores
  • user-avatar
    Iniciar sesión

    Tiempo cada hora Bolshoe Ryzhkovo

    Hoy, 23 Septiembre, Domingo

    Tiempo Temperatura Precipitaciones Viento Presión Humedad
    00:00 +19°C° 0 mm 5 mps 739 mmHg 56%
    01:00 +17°C° 0 mm 5 mps 739 mmHg 58%
    02:00 +17°C° 0 mm 4 mps 739 mmHg 62%
    03:00 +15°C° 0.3 mm 5 mps 739 mmHg 69%
    04:00 +14°C° 0.3 mm 5 mps 739 mmHg 75%
    05:00 +11°C° 0.3 mm 6 mps 739 mmHg 82%
    06:00 +10°C° 0.7 mm 6 mps 740 mmHg 83%
    07:00 +9°C° 0.7 mm 6 mps 740 mmHg 84%
    08:00 +9°C° 0.7 mm 5 mps 740 mmHg 85%
    09:00 +9°C° 0.2 mm 5 mps 741 mmHg 83%
    10:00 +9°C° 0.2 mm 5 mps 741 mmHg 81%
    11:00 +11°C° 0.2 mm 4 mps 742 mmHg 78%
    12:00 +11°C° 0 mm 4 mps 742 mmHg 76%
    13:00 +12°C° 0 mm 4 mps 742 mmHg 74%
    14:00 +12°C° 0 mm 4 mps 742 mmHg 72%
    15:00 +12°C° 0 mm 3 mps 742 mmHg 73%
    16:00 +12°C° 0 mm 3 mps 742 mmHg 73%
    17:00 +13°C° 0 mm 2 mps 741 mmHg 74%
    18:00 +12°C° 0 mm 2 mps 742 mmHg 78%
    19:00 +10°C° 0 mm 3 mps 742 mmHg 81%
    20:00 +9°C° 0 mm 3 mps 742 mmHg 85%
    21:00 +9°C° 0 mm 3 mps 742 mmHg 87%
    22:00 +8°C° 0 mm 3 mps 742 mmHg 88%
    23:00 +8°C° 0 mm 3 mps 742 mmHg 89%

    Mañana, 24 Septiembre, Lunes

    Tiempo Temperatura Precipitaciones Viento Presión Humedad
    00:00 +8°C° 0 mm 3 mps 742 mmHg 89%
    01:00 +8°C° 0 mm 3 mps 742 mmHg 89%
    02:00 +7°C° 0 mm 3 mps 742 mmHg 89%
    03:00 +7°C° 0 mm 3 mps 742 mmHg 88%
    04:00 +7°C° 0 mm 3 mps 741 mmHg 87%
    05:00 +7°C° 0 mm 3 mps 741 mmHg 86%
    06:00 +7°C° 0 mm 4 mps 741 mmHg 83%
    07:00 +8°C° 0 mm 4 mps 741 mmHg 79%
    08:00 +9°C° 0 mm 5 mps 740 mmHg 76%
    09:00 +9°C° 0.2 mm 6 mps 740 mmHg 76%
    10:00 +10°C° 0.2 mm 6 mps 739 mmHg 76%
    11:00 +10°C° 0.2 mm 7 mps 739 mmHg 76%
    12:00 +10°C° 1.6 mm 7 mps 738 mmHg 79%
    13:00 +10°C° 1.6 mm 8 mps 736 mmHg 82%
    14:00 +8°C° 1.6 mm 9 mps 735 mmHg 85%
    15:00 +10°C° 2.8 mm 9 mps 734 mmHg 86%
    16:00 +10°C° 2.8 mm 9 mps 733 mmHg 87%
    17:00 +10°C° 2.8 mm 9 mps 731 mmHg 89%
    18:00 +11°C° 0.7 mm 9 mps 731 mmHg 88%
    19:00 +11°C° 0.7 mm 9 mps 730 mmHg 88%
    20:00 +11°C° 0.7 mm 9 mps 729 mmHg 88%
    21:00 +10°C° 0.1 mm 9 mps 730 mmHg 87%
    22:00 +8°C° 0.1 mm 9 mps 730 mmHg 85%
    23:00 +7°C° 0.1 mm 9 mps 730 mmHg 84%

    Pasado mañana, 25 Septiembre, Martes

    Tiempo Temperatura Precipitaciones Viento Presión Humedad
    00:00 +7°C° 0 mm 9 mps 731 mmHg 84%
    01:00 +7°C° 0 mm 9 mps 731 mmHg 84%
    02:00 +6°C° 0 mm 9 mps 732 mmHg 84%
    03:00 +6°C° 0.1 mm 9 mps 732 mmHg 85%
    04:00 +6°C° 0.1 mm 9 mps 733 mmHg 85%
    05:00 +6°C° 0.1 mm 8 mps 733 mmHg 85%
    06:00 +6°C° 0 mm 8 mps 734 mmHg 83%
    07:00 +6°C° 0 mm 8 mps 734 mmHg 81%
    08:00 +6°C° 0 mm 8 mps 735 mmHg 79%
    09:00 +6°C° 0 mm 8 mps 736 mmHg 77%
    10:00 +6°C° 0 mm 8 mps 736 mmHg 75%
    11:00 +6°C° 0 mm 8 mps 737 mmHg 73%
    12:00 +6°C° 0 mm 8 mps 738 mmHg 72%
    13:00 +6°C° 0 mm 8 mps 738 mmHg 71%
    14:00 +6°C° 0 mm 8 mps 739 mmHg 70%
    15:00 +5°C° 0 mm 7 mps 740 mmHg 70%
    16:00 +5°C° 0 mm 6 mps 740 mmHg 71%
    17:00 +5°C° 0 mm 6 mps 741 mmHg 71%
    18:00 +5°C° 0 mm 6 mps 741 mmHg 71%
    19:00 +5°C° 0 mm 5 mps 742 mmHg 72%
    20:00 +5°C° 0 mm 5 mps 742 mmHg 73%
    21:00 +5°C° 0 mm 5 mps 743 mmHg 74%
    22:00 +5°C° 0 mm 5 mps 743 mmHg 75%
    23:00 +3°C° 0 mm 5 mps 743 mmHg 76%

    26 Septiembre, Miércoles

    Tiempo Temperatura Precipitaciones Viento Presión Humedad
    00:00 +3°C° 0 mm 5 mps 744 mmHg 79%
    01:00 +2°C° 0 mm 5 mps 744 mmHg 81%
    02:00 +3°C° 0 mm 4 mps 745 mmHg 83%
    03:00 +3°C° 0 mm 4 mps 745 mmHg 84%
    04:00 +1°C° 0 mm 4 mps 746 mmHg 84%
    05:00 +1°C° 0 mm 4 mps 746 mmHg 85%
    06:00 +2°C° 0 mm 5 mps 747 mmHg 79%
    07:00 +2°C° 0 mm 5 mps 748 mmHg 73%
    08:00 +3°C° 0 mm 5 mps 748 mmHg 67%
    09:00 +5°C° 0 mm 5 mps 749 mmHg 63%
    10:00 +6°C° 0 mm 5 mps 749 mmHg 59%
    11:00 +7°C° 0 mm 5 mps 749 mmHg 55%
    12:00 +8°C° 0 mm 5 mps 749 mmHg 53%
    13:00 +8°C° 0 mm 5 mps 749 mmHg 51%
    14:00 +9°C° 0 mm 5 mps 749 mmHg 49%
    15:00 +8°C° 0 mm 4 mps 750 mmHg 53%
    16:00 +8°C° 0 mm 3 mps 750 mmHg 58%
    17:00 +7°C° 0 mm 2 mps 750 mmHg 62%
    18:00 +7°C° 0 mm 2 mps 750 mmHg 66%
    19:00 +5°C° 0 mm 3 mps 750 mmHg 70%
    20:00 +4°C° 0 mm 3 mps 750 mmHg 74%
    21:00 +4°C° 0 mm 3 mps 750 mmHg 76%
    22:00 +4°C° 0 mm 4 mps 750 mmHg 77%
    23:00 +4°C° 0 mm 4 mps 749 mmHg 79%

    27 Septiembre, Jueves

    Tiempo Temperatura Precipitaciones Viento Presión Humedad
    00:00 +4°C° 0 mm 4 mps 749 mmHg 76%
    01:00 +3°C° 0 mm 5 mps 748 mmHg 72%
    02:00 +3°C° 0 mm 5 mps 748 mmHg 69%
    03:00 +3°C° 0.1 mm 6 mps 747 mmHg 70%
    04:00 +4°C° 0.1 mm 6 mps 746 mmHg 71%
    05:00 +4°C° 0.1 mm 7 mps 746 mmHg 72%
    06:00 +4°C° 0.1 mm 7 mps 745 mmHg 72%
    07:00 +5°C° 0.1 mm 8 mps 744 mmHg 73%
    08:00 +5°C° 0.1 mm 9 mps 744 mmHg 74%
    09:00 +5°C° 0.4 mm 10 mps 743 mmHg 75%
    10:00 +5°C° 0.4 mm 10 mps 742 mmHg 76%
    11:00 +5°C° 0.4 mm 10 mps 742 mmHg 77%
    12:00 +5°C° 0.2 mm 10 mps 741 mmHg 79%
    13:00 +5°C° 0.2 mm 10 mps 741 mmHg 82%
    14:00 +5°C° 0.2 mm 10 mps 740 mmHg 84%
    15:00 +5°C° 0.1 mm 10 mps 740 mmHg 85%
    16:00 +6°C° 0.1 mm 10 mps 740 mmHg 86%
    17:00 +6°C° 0.1 mm 9 mps 739 mmHg 87%
    18:00 +7°C° 0.1 mm 9 mps 739 mmHg 87%
    19:00 +7°C° 0.1 mm 9 mps 739 mmHg 88%
    20:00 +8°C° 0.1 mm 9 mps 739 mmHg 88%
    21:00 +9°C° 0.1 mm 8 mps 740 mmHg 87%
    22:00 +8°C° 0.1 mm 7 mps 740 mmHg 86%
    23:00 +8°C° 0.1 mm 6 mps 741 mmHg 85%

    28 Septiembre, Viernes

    Tiempo Temperatura Precipitaciones Viento Presión Humedad
    00:00 +7°C° 0 mm 5 mps 741 mmHg 86%
    01:00 +6°C° 0 mm 5 mps 741 mmHg 87%
    02:00 +5°C° 0 mm 5 mps 742 mmHg 89%
    03:00 +5°C° 0 mm 5 mps 742 mmHg 90%
    04:00 +4°C° 0 mm 4 mps 742 mmHg 91%
    05:00 +4°C° 0 mm 4 mps 743 mmHg 92%
    06:00 +5°C° 0 mm 4 mps 743 mmHg 89%
    07:00 +5°C° 0 mm 4 mps 743 mmHg 85%
    08:00 +6°C° 0 mm 4 mps 743 mmHg 81%
    09:00 +8°C° 0 mm 5 mps 743 mmHg 74%
    10:00 +9°C° 0 mm 5 mps 743 mmHg 67%
    11:00 +10°C° 0 mm 5 mps 743 mmHg 59%
    12:00 +12°C° 0.1 mm 5 mps 742 mmHg 63%
    13:00 +12°C° 0.1 mm 4 mps 741 mmHg 66%
    14:00 +12°C° 0.1 mm 4 mps 741 mmHg 70%
    15:00 +12°C° 0.8 mm 5 mps 740 mmHg 75%
    16:00 +11°C° 0.8 mm 6 mps 740 mmHg 80%
    17:00 +11°C° 0.8 mm 7 mps 740 mmHg 85%
    18:00 +11°C° 0.3 mm 7 mps 740 mmHg 87%
    19:00 +10°C° 0.3 mm 6 mps 741 mmHg 88%
    20:00 +9°C° 0.3 mm 6 mps 741 mmHg 90%
    21:00 +7°C° 0 mm 5 mps 742 mmHg 89%
    22:00 +6°C° 0 mm 5 mps 743 mmHg 88%
    23:00 +5°C° 0 mm 5 mps 744 mmHg 87%
    Mostrar más